This is the latest recevied weather packets stored in our database for station/object WA9AFM. If no packets are shown the sender has not sent any weather packets the latest 1 day(s).
| Time | Temp. | Humidity | Pressure | Rain* | Wind** | Luminosity | Snow |
|---|---|---|---|---|---|---|---|
| 1836274556 | 24.44° C | 76% | 1010.3 hPa | 0 mm | 0 m/s | - | - |
| 1778035311 | 9.44° C | 83% | 1006.8 hPa | 0 mm | 0.45 m/s, 205° | - | - |
| 1778034411 | 9.44° C | 82% | 1006.7 hPa | 0 mm | 0.89 m/s, 40° | - | - |
| 1778033511 | 9.44° C | 82% | 1006.5 hPa | 0 mm | 1.34 m/s, 122° | - | - |
| 1778032611 | 9.44° C | 82% | 1006.4 hPa | 0 mm | 0.89 m/s, 192° | - | - |
| 1778031710 | 9.44° C | 82% | 1006.1 hPa | 0 mm | 0.89 m/s, 208° | - | - |
| 1778030812 | 10° C | 82% | 1006 hPa | 0 mm | 0 m/s | - | - |
| 1778029912 | 10° C | 81% | 1005.8 hPa | 0 mm | 0 m/s | - | - |
| 1778029011 | 10° C | 80% | 1005.2 hPa | 0 mm | 0 m/s | - | - |
| 1778028110 | 10.56° C | 79% | 1004.8 hPa | 0 mm | 0.45 m/s, 181° | - | - |
| 1778027212 | 10.56° C | 76% | 1004.7 hPa | 0 mm | 0 m/s | - | - |
| 1778026311 | 11.11° C | 76% | 1004.6 hPa | 0 mm | 0 m/s | - | - |
| 1778025410 | 11.11° C | 75% | 1004.4 hPa | 0 mm | 0 m/s | - | - |
| 1778024511 | 11.11° C | 75% | 1004.5 hPa | 0 mm | 0 m/s | - | - |
| 1778023610 | 11.67° C | 76% | 1004.5 hPa | 0 mm | 1.79 m/s, 121° | - | - |
| 1778022711 | 11.67° C | 76% | 1004.3 hPa | 0 mm | 0.45 m/s, 208° | - | - |
| 1778021810 | 11.67° C | 76% | 1004 hPa | 0 mm | 0 m/s | - | - |
| 1778020911 | 11.67° C | 76% | 1004.4 hPa | 0 mm | 0 m/s | - | - |
| 1778020011 | 11.67° C | 76% | 1003.8 hPa | 0 mm | 2.24 m/s, 194° | - | - |
| 1778019110 | 12.22° C | 76% | 1003.7 hPa | 0 mm | 0.45 m/s, 141° | - | - |
| 1778018211 | 12.22° C | 76% | 1003.2 hPa | 0 mm | 0.89 m/s, 193° | - | - |
| 1778017310 | 12.22° C | 76% | 1003.3 hPa | 0 mm | 2.24 m/s, 185° | - | - |
| 1778016410 | 12.78° C | 75% | 1003.4 hPa | 0 mm | 2.24 m/s, 177° | - | - |
| 1778015511 | 12.78° C | 75% | 1002.3 hPa | 0 mm | 3.13 m/s, 222° | - | - |
| 1778014610 | 12.78° C | 77% | 1002.5 hPa | 0 mm | 0 m/s | - | - |
* Rain latest hour (hover to see other rain measurements)
** Current wind speed in m/s (hover to see current wind gust speed)